Regional Weather Roundup
Issued by NWS State College, PA

Home | Current Version | Previous Version | Text Only | Print | Product List | Glossary On
Versions: 1 2 3 4 5 6 7 8 9 10 11 12 13 14 15 16 17 18 19 20 21 22 23 24 25 26 27 28 29 30 31 32 33 34 35 36 37 38 39 40 41 42 43 44 45 46 47 48 49 50
000
ASUS41 KCTP 041510
RWRCTP

REGIONAL WEATHER ROUNDUP
NATIONAL WEATHER SERVICE STATE COLLEGE PA
1000 AM EST SUN DEC 04 2016

Note: "fair" indicates few or no clouds below 12,000 feet with no
significant weather and/or obstructions to visibility.

* = STATION THAT DOES NOT REPORT PRECIPITATION /E.G. RAIN...SNOW...ETC/
    THUNDER OR FOG.

PAZ002>004-007>009-013>016-020>023-029>032-041600-
WESTERN PENNSYLVANIA

CITY           SKY/WX    TMP DP  RH WIND       PRES   REMARKS
ERIE           CLOUDY    37  31  78 S7        30.24F
MEADVILLE      CLOUDY    35  29  78 CALM      30.22S
FRANKLIN*        N/A     34  27  75 CALM      30.23F
NEW CASTLE     FAIR      35  30  82 CALM      30.26S
BEAVER COUNTY  NOT AVBL
BUTLER*        PTSUNNY   34  27  75 CALM      30.26S
PITTSBURGH INT CLOUDY    36  27  69 CALM      30.23S
PITTSBURGH     PTSUNNY   35  25  66 CALM      30.23S
INDIANA*       SUNNY     36  28  75 CALM      30.27S
LATROBE        SUNNY     36  28  75 CALM      30.25S
WASHINGTON CO* PTSUNNY   34  27  75 CALM      30.25R
$$

PAZ004>006-010>012-017>019-024>028-033>037-041-042-045-046-049>053-041600-
CENTRAL PENNSYLVANIA

CITY           SKY/WX    TMP DP  RH WIND       PRES   REMARKS
BRADFORD       CLOUDY    33  29  85 CALM      30.21R
DUBOIS         CLOUDY    35  30  82 CALM      30.21R
CLEARFIELD     PTSUNNY   36  33  89 CALM      30.24R
JOHNSTOWN      CLOUDY    32  27  81 CALM      30.20R
ALTOONA        CLOUDY    36  29  75 W5        30.24R
STATE COLLEGE  CLOUDY    37  30  75 CALM      30.23S
WILLIAMSPORT   CLOUDY    42  24  49 NW5       30.25S
SELINSGROVE    CLOUDY    41  29  62 NE7       30.27R
FT INDIANTOWN  CLOUDY    42  25  51 VRB3      30.26R
CAPITAL CITY   CLOUDY    44  27  51 NW6       30.27R
HARRISBURG     CLOUDY    44  28  53 NW8       30.26R
YORK           CLOUDY    40  32  73 W5        30.27R
$$

PAZ038>040-043-044-047-048-054-055-060>062-067>071-041600-
EASTERN PENNSYLVANIA

CITY           SKY/WX    TMP DP  RH WIND       PRES   REMARKS
SCRANTON       MOSUNNY   39  24  55 N10       30.23S
MOUNT POCONO   SUNNY     33  20  58 NW12G22   30.17S
ALLENTOWN      MOSUNNY   44  25  47 NW10      30.24S
QUAKERTOWN*    MOSUNNY   41  25  52 N7        30.24S
READING        CLOUDY    43  24  47 N8        30.25S
LANCASTER      CLOUDY    44  30  57 N5        30.26R
COATESVILLE    CLOUDY    43  27  52 N7G18     30.25S
POTTSTOWN      CLOUDY    42  24  49 NW10      30.26S
BLUE BELL      MOSUNNY   43  27  52 N6        30.24S
DOYLESTOWN     MOSUNNY   45  26  47 N6        30.23S
WILLOW GROVE   NOT AVBL
NORTH PHILA    SUNNY     47  27  45 N13       30.26F
PHILADELPHIA   PTSUNNY   45  25  45 NW12      30.26S
$$




USA.gov is the U.S. government's official web portal to all federal, state and local government web resources and services.